Big Rapids, MI

12:07 AM EDT on March 30, 2017 (GMT -0400)
Roben-Hood

Weather History for KRQB - November, 2012

Change the Weather History Date:

Friday, November 23, 2012

  Actual Average Record
Temperature  
Mean Temperature 44 °F -  
Max Temperature 55 °F 41 °F 66 °F (1999)
Min Temperature 32 °F 27 °F 8 °F (1971)
Degree Days  
Heating Degree Days 21    
Moisture  
Dew Point 26 °F    
Average Humidity 65    
Maximum Humidity 83    
Minimum Humidity 58    
Precipitation  
Precipitation 0.00 in - - ()
Sea Level Pressure  
Sea Level Pressure 29.79 in    
Wind  
Wind Speed 17 mph (WNW)    
Max Wind Speed 26 mph    
Max Gust Speed 43 mph    
Visibility 9 miles    
Events Snow    
Averages and records for this station are not official NWS values.
T = Trace of Precipitation, MM = Missing Value Source: NWS Daily Summary

Daily Weather History Graph

Daily Weather History Graph

Search for Another Location

Airport or City:

Trip Planner

Search our weather history database for the weather conditions in past years. The results will help you decide how hot, cold, wet, or windy it might be!

Date:

Astronomy

Nov. 23, 2012 Rise Set
Actual Time 7:47 AM EST 5:09 PM EST
Civil Twilight 7:15 AM EST 5:41 PM EST
Nautical Twilight 6:39 AM EST 6:16 PM EST
Astronomical Twilight 6:05 AM EST 6:51 PM EST
Moon 2:30 PM EST (11/23) 2:57 AM EST (11/23)
Length of Visible Light 10h 26m
Length of Day
9h 22m
Waxing Gibbous, 79% of the Moon is Illuminated
Nov 23
Waxing Gibbous
Nov 28
Full
Dec 6
Last Quarter
Dec 13
New
Dec 20
First Quarter

Hourly Weather History & Observations

Time (EST) Temp. Windchill Dew Point Humidity Pressure Visibility Wind Dir Wind Speed Gust Speed Precip Events Conditions
12:14 AM 56.3 °F - 44.6 °F 65% 29.65 in 10.0 mi SW 13.8 mph 24.2 mph N/A   Overcast
12:35 AM 55.9 °F - 44.6 °F 66% 29.64 in 10.0 mi SW 16.1 mph 23.0 mph N/A   Overcast
12:54 AM 55.8 °F - 44.8 °F 67% 29.63 in 10.0 mi SW 15.0 mph 21.9 mph N/A   Overcast
1:14 AM 55.6 °F - 45.1 °F 68% 29.62 in 10.0 mi SW 18.4 mph 26.5 mph N/A   Overcast
1:35 AM 55.2 °F - 45.5 °F 70% 29.62 in 10.0 mi WSW 18.4 mph 25.3 mph N/A   Overcast
1:54 AM 54.9 °F - 45.5 °F 71% 29.61 in 10.0 mi WSW 11.5 mph 21.9 mph N/A   Overcast
2:14 AM 54.5 °F - 45.0 °F 70% 29.61 in 10.0 mi WSW 9.2 mph 23.0 mph N/A   Overcast
2:35 AM 52.9 °F - 42.4 °F 68% 29.63 in 10.0 mi West 18.4 mph 25.3 mph N/A   Overcast
2:54 AM 47.7 °F - 35.1 °F 62% 29.66 in 10.0 mi West 25.3 mph 34.5 mph N/A   Overcast
3:14 AM 45.5 °F 37.8 °F 34.0 °F 64% 29.67 in 10.0 mi West 19.6 mph 28.8 mph N/A   Overcast
3:35 AM 44.6 °F 37.4 °F 34.3 °F 67% 29.67 in 10.0 mi West 16.1 mph 26.5 mph N/A   Overcast
3:54 AM 44.2 °F 35.9 °F 34.0 °F 67% 29.66 in 10.0 mi West 20.7 mph 28.8 mph N/A   Overcast
4:14 AM 43.9 °F 37.9 °F 33.8 °F 68% 29.67 in 10.0 mi West 11.5 mph 21.9 mph N/A   Overcast
4:35 AM 43.3 °F 35.5 °F 33.1 °F 67% 29.67 in 10.0 mi West 17.3 mph 32.2 mph N/A   Overcast
4:54 AM 42.6 °F 35.6 °F 32.0 °F 66% 29.68 in 10.0 mi West 13.8 mph 24.2 mph N/A   Overcast
5:14 AM 41.5 °F 33.5 °F 31.3 °F 67% 29.68 in 10.0 mi West 16.1 mph 23.0 mph N/A   Overcast
5:35 AM 40.3 °F 31.6 °F 29.3 °F 65% 29.69 in 10.0 mi West 17.3 mph 25.3 mph N/A   Overcast
5:54 AM 39.6 °F 30.0 °F 29.5 °F 67% 29.69 in 10.0 mi West 19.6 mph 29.9 mph N/A   Overcast
6:14 AM 38.3 °F 27.8 °F 26.8 °F 63% 29.69 in 10.0 mi West 21.9 mph 28.8 mph N/A   Overcast
6:35 AM 37.8 °F 27.7 °F 25.5 °F 61% 29.70 in 10.0 mi West 19.6 mph 34.5 mph N/A   Overcast
6:54 AM 37.4 °F 28.2 °F 24.8 °F 60% 29.71 in 10.0 mi West 16.1 mph 32.2 mph N/A   Overcast
7:15 AM 37.4 °F 28.2 °F 25.0 °F 61% 29.70 in 10.0 mi West 16.1 mph 26.5 mph N/A   Overcast
7:34 AM 37.4 °F 28.5 °F 24.6 °F 60% 29.71 in 10.0 mi West 15.0 mph 25.3 mph N/A   Overcast
7:54 AM 37.4 °F 30.8 °F 24.8 °F 60% 29.71 in 10.0 mi West 9.2 mph 16.1 mph N/A   Overcast
8:15 AM 36.7 °F 26.6 °F 24.3 °F 61% 29.71 in 10.0 mi West 18.4 mph 34.5 mph N/A   Overcast
8:34 AM 36.0 °F 25.3 °F 24.1 °F 62% 29.71 in 10.0 mi WNW 19.6 mph 33.4 mph N/A   Overcast
8:54 AM 35.6 °F 25.9 °F 23.9 °F 62% 29.72 in 10.0 mi West 16.1 mph 28.8 mph N/A   Overcast
9:15 AM 34.7 °F 23.1 °F 23.7 °F 64% 29.73 in 10.0 mi West 21.9 mph 32.2 mph N/A   Overcast
9:34 AM 34.0 °F 22.1 °F 22.3 °F 62% 29.73 in 10.0 mi West 21.9 mph 33.4 mph N/A   Overcast
9:54 AM 33.6 °F 21.9 °F 22.1 °F 63% 29.73 in 10.0 mi West 20.7 mph 27.6 mph N/A   Overcast
10:15 AM 33.1 °F 21.9 °F 21.7 °F 63% 29.74 in 10.0 mi WNW 18.4 mph 26.5 mph N/A   Overcast
10:34 AM 32.5 °F 20.8 °F 21.6 °F 64% 29.74 in 10.0 mi West 19.6 mph 27.6 mph N/A   Overcast
10:54 AM 32.2 °F 20.7 °F 22.1 °F 66% 29.75 in 10.0 mi West 18.4 mph 27.6 mph N/A   Overcast
11:15 AM 32.0 °F 21.2 °F 23.5 °F 71% 29.75 in 10.0 mi West 16.1 mph 24.2 mph N/A   Overcast
11:34 AM 32.0 °F 22.1 °F 24.4 °F 74% 29.75 in 5.0 mi West 13.8 mph 23.0 mph N/A Snow Light Snow
11:54 AM 32.0 °F 20.8 °F 24.8 °F 75% 29.75 in 7.0 mi West 17.3 mph 24.2 mph N/A Snow Light Snow
12:15 PM 32.0 °F 21.2 °F 26.2 °F 79% 29.75 in 1.5 mi West 16.1 mph 23.0 mph N/A Snow Light Snow
12:34 PM 32.5 °F 20.8 °F 26.4 °F 78% 29.75 in 3.0 mi WNW 19.6 mph 27.6 mph N/A Snow Light Snow
12:54 PM 32.5 °F 21.5 °F 26.6 °F 79% 29.75 in 7.0 mi WNW 17.3 mph 25.3 mph N/A Snow Light Snow
1:15 PM 33.3 °F 22.5 °F 25.5 °F 73% 29.75 in 10.0 mi West 17.3 mph 25.3 mph N/A Snow Light Snow
1:34 PM 33.4 °F 21.7 °F 24.4 °F 70% 29.76 in 10.0 mi WNW 20.7 mph 29.9 mph N/A Snow Light Snow
1:55 PM 33.8 °F 22.5 °F 25.0 °F 70% 29.77 in 10.0 mi West 19.6 mph 28.8 mph N/A Snow Light Snow
2:15 PM 33.1 °F 21.9 °F 26.1 °F 75% 29.78 in 1.2 mi WNW 18.4 mph 25.3 mph N/A Snow Light Snow
2:34 PM 32.0 °F 21.6 °F 27.5 °F 83% 29.79 in 0.2 mi WNW 15.0 mph - N/A Snow Light Snow
2:55 PM 32.0 °F 21.2 °F 26.4 °F 80% 29.80 in 0.5 mi NW 16.1 mph 20.7 mph N/A Snow Light Snow
3:14 PM 32.4 °F 20.6 °F 25.2 °F 75% 29.80 in 5.0 mi WNW 19.6 mph 32.2 mph N/A Snow Light Snow
3:34 PM 32.9 °F 22.0 °F 24.6 °F 72% 29.82 in 1.5 mi NW 17.3 mph 27.6 mph N/A Snow Light Snow
3:55 PM 33.3 °F 22.1 °F 24.3 °F 70% 29.83 in 10.0 mi WNW 18.4 mph 28.8 mph N/A   Overcast
4:14 PM 33.1 °F 21.2 °F 22.8 °F 66% 29.83 in 10.0 mi WNW 20.7 mph 27.6 mph N/A   Overcast
4:34 PM 33.6 °F 22.2 °F 21.4 °F 61% 29.85 in 10.0 mi NW 19.6 mph 27.6 mph N/A   Overcast
4:55 PM 33.8 °F 21.0 °F 20.5 °F 58% 29.86 in 10.0 mi NW 25.3 mph 29.9 mph N/A   Overcast
5:14 PM 33.6 °F 20.8 °F 20.7 °F 59% 29.87 in 10.0 mi NW 25.3 mph 35.7 mph N/A   Overcast
5:34 PM 33.4 °F 21.1 °F 20.7 °F 59% 29.89 in 10.0 mi NW 23.0 mph 42.6 mph N/A   Overcast
5:55 PM 33.3 °F 22.5 °F 20.5 °F 59% 29.90 in 10.0 mi NW 17.3 mph 29.9 mph N/A   Overcast
6:14 PM 33.4 °F 20.3 °F 20.1 °F 58% 29.91 in 10.0 mi NW 26.5 mph 34.5 mph N/A   Overcast
6:34 PM 33.3 °F 20.1 °F 19.9 °F 58% 29.92 in 10.0 mi NW 26.5 mph 34.5 mph N/A   Overcast
6:55 PM 33.1 °F 20.3 °F 19.6 °F 58% 29.93 in 10.0 mi NW 24.2 mph 35.7 mph N/A   Overcast
7:14 PM 33.1 °F 20.9 °F 20.1 °F 59% 29.94 in 10.0 mi NW 21.9 mph 28.8 mph N/A   Overcast
7:34 PM 32.9 °F 20.7 °F 19.8 °F 59% 29.95 in 10.0 mi NW 21.9 mph 31.1 mph N/A   Overcast
7:54 PM 32.5 °F 19.4 °F 19.0 °F 58% 29.96 in 10.0 mi NW 25.3 mph 33.4 mph N/A   Overcast
8:14 PM 32.4 °F 20.6 °F 19.9 °F 60% 29.96 in 10.0 mi NW 19.6 mph 27.6 mph N/A   Overcast
8:35 PM 32.0 °F 19.5 °F 20.1 °F 62% 29.97 in 10.0 mi NW 21.9 mph 27.6 mph N/A   Overcast
8:54 PM 32.0 °F 19.8 °F 20.1 °F 62% 29.97 in 10.0 mi NW 20.7 mph 33.4 mph N/A   Overcast
9:14 PM 32.0 °F 20.8 °F 20.1 °F 62% 29.98 in 10.0 mi NW 17.3 mph 26.5 mph N/A   Overcast
9:35 PM 32.0 °F 20.8 °F 20.1 °F 62% 29.98 in 10.0 mi NW 17.3 mph 24.2 mph N/A   Overcast
9:54 PM 32.0 °F 21.2 °F 20.3 °F 62% 29.99 in 10.0 mi NW 16.1 mph 24.2 mph N/A   Overcast
10:14 PM 32.0 °F 21.2 °F 20.3 °F 62% 29.99 in 10.0 mi NW 16.1 mph 26.5 mph N/A   Overcast
10:35 PM 32.0 °F 21.2 °F 20.1 °F 62% 29.99 in 10.0 mi NW 16.1 mph 19.6 mph N/A   Overcast
10:54 PM 32.0 °F 20.8 °F 20.1 °F 62% 29.99 in 10.0 mi NW 17.3 mph 24.2 mph N/A   Overcast
11:14 PM 32.0 °F 23.0 °F 19.9 °F 61% 30.00 in 10.0 mi NW 11.5 mph 29.9 mph N/A   Overcast
11:35 PM 32.0 °F 20.8 °F 18.7 °F 58% 30.00 in 10.0 mi NW 17.3 mph 21.9 mph N/A   Overcast
11:54 PM 32.0 °F 20.5 °F 18.5 °F 58% 30.00 in 10.0 mi NW 18.4 mph 26.5 mph N/A   Overcast